User: anonymous   Login
Location: Ostrava
(49.8330°N, 18.2830°E)
Time: 05:04:19
(UTC+02:00)
Language:

Vanguard 2 Rocket - Orbit

View from above orbital plane
View from above orbital plane
View from above satellite
View from above satellite

Ground track
Ground track

The orbit data is extracted from the following two-line orbital elements,

1 00012U 59001B   15107.44433671  .00000979  00000-0  56291-3 0  9995
2 00012 032.9067 114.5146 1668592 232.9095 110.7207 11.43588817306262
Epoch (UTC): 17 April 2015 10:39:50
Eccentricity: 0.1668592
inclination: 32.9067°
perigee height: 555 km
apogee height: 3332 km
right ascension of ascending node: 114.5146°
argument of perigee: 232.9095°
revolutions per day: 11.43588817
mean anomaly at epoch: 110.7207°
orbit number at epoch: 30626

The dashed part of the orbit path shows where the satellite is in the earth's shadow,  

DLR